Regional Weather Roundup
Issued by NWS

Home | Current Version | Previous Version | Graphics & Text | Print | Product List | Glossary On
Versions: 1 2 3 4 5 6 7 8 9 10 11 12 13 14 15 16 17 18 19 20 21 22 23 24 25 26 27 28 29 30 31 32 33 34 35 36 37 38 39 40 41 42 43 44 45 46 47 48 49 50
000
ASUS45 KPSR 202210
RWRAZ

ARIZONA HOURLY REGIONAL WEATHER ROUNDUP
NATIONAL WEATHER SERVICE PHOENIX AZ
300 PM MST SUN AUG 20 2017

NOTE: FAIR INDICATES FEW OR NO CLOUDS BELOW 12,000 FEET WITH NO
SIGNIFICANT WEATHER AND/OR OBSTRUCTIONS TO VISIBILITY.

AZZ001>003-036-202300-
NORTHWEST ARIZONA

CITY           SKY/WX    TMP DP  RH WIND       PRES   REMARKS
BULLHEAD CITY  SUNNY    106  39  10 S10G18    29.75F HX 100
KINGMAN        SUNNY     96  43  16 SW15      29.98F
$$

AZZ004>008-015-016-018-202300-
NORTH CENTRAL ARIZONA

CITY           SKY/WX    TMP DP  RH WIND       PRES   REMARKS
GRAND CANYON   CLOUDY    66  50  56 NW8G16    30.25F
WILLIAMS       MOSUNNY   75  46  35 W8        30.23S
PRESCOTT       MOSUNNY   83  47  28 SW8       30.11F
FLAGSTAFF      TSTM      56  53  90 SW7       30.28R
PAYSON           N/A     79  46  31 N21G28    30.14R
PAGE           PTSUNNY   95  37  13 CALM      29.97F
$$

AZZ009>014-017-202300-
NORTHEAST ARIZONA

CITY           SKY/WX    TMP DP  RH WIND       PRES   REMARKS
WINSLOW        CLOUDY    82  52  35 SW24G31   30.05F
SAINT JOHNS    PTSUNNY   77  50  38 SW16      30.11F
WINDOW ROCK    CLOUDY    82  37  20 S5        30.17F
SHOW LOW       MOSUNNY   79  50  36 W6G13     30.16F
$$

AZZ540-542>544-546-548-202300-
GREATER PHOENIX AREA

CITY           SKY/WX    TMP DP  RH WIND       PRES   REMARKS
PHOENIX        MOSUNNY  101  50  18 S7        29.81F
BUCKEYE        MOSUNNY   95  54  24 SE7       29.82F
GLENDALE       MOSUNNY   99  46  16 W3        29.83F
DEER VALLEY    MOSUNNY   96  48  19 S3        29.83F
SCOTTSDALE     MOSUNNY   97  49  19 VRB3      29.86F
MESA-FALCON    MOSUNNY   99  48  18 SW12      29.85F
MESA-GATEWAY   MOSUNNY   97  52  21 SW7       29.85F
CHANDLER       MOSUNNY   99  48  18 SW8       29.83F
$$

AZZ539-553-202300-
SOUTHWEST MARICOPA COUNTY AND PINAL COUNTY

CITY           SKY/WX    TMP DP  RH WIND       PRES   REMARKS
CASA GRANDE    SUNNY     98  45  16 NW6       29.86F
GILA BEND      FAIR     102  50  17 CALM      29.78F
$$

AZZ503-504-507>509-202300-
SOUTHEAST ARIZONA

CITY           SKY/WX    TMP DP  RH WIND       PRES   REMARKS
TUCSON         NOT AVBL
DAVIS-MONTHAN  PTSUNNY   95  53  23 NW6       29.94F
RYAN FIELD     SUNNY     95  50  21 NW6       29.94F
NOGALES        PTSUNNY   85  56  37 NW7       30.04F
SIERRA VISTA   CLOUDY    79  54  41 SE8       30.11F
DOUGLAS        CLOUDY    78  56  46 NE5       30.07F
SAFFORD        CLOUDY    83  57  41 W5        29.98F
$$

AZZ532-202300-
SOUTHWEST ARIZONA

CITY           SKY/WX    TMP DP  RH WIND       PRES   REMARKS
YUMA           SUNNY    104  51  17 N5        29.74F HX 101
$$

CAZ041-043-047-048-061-525>527-560>570-202300-
SOUTHERN CALIFORNIA

CITY           SKY/WX    TMP DP  RH WIND       PRES   REMARKS
DOWNTOWN L.A.  SUNNY     78  60  53 CALM      29.89F
L.A. AIRPORT   MOSUNNY   75  61  61 W15       29.90F
SAN DIEGO      MOSUNNY   73  60  63 SW10      29.93F
BURBANK        SUNNY     80  58  46 S8G16     29.88F
ONTARIO        MOSUNNY   89  54  30 W13G21    29.87F
RIVERSIDE      SUNNY     89  59  36 W8G17     29.85F
PALM SPRINGS   SUNNY    105  34   8 N6        29.77F
EL CENTRO NAS  SUNNY    105  48  14 MISG      29.73F HX 101
IMPERIAL       SUNNY    105  55  19 VRB3      29.71F HX 104
BLYTHE         SUNNY    103  45  14 S6        29.75F
NEEDLES        SUNNY    108  39   9 SW14G22   29.77F HX 102
$$

NVZ020-UTZ003-202300-
SOUTHERN NEVADA-UTAH

CITY           SKY/WX    TMP DP  RH WIND       PRES   REMARKS
LAS VEGAS      MOSUNNY  103  43  13 VRB7      29.84F
SALT LAKE CITY MOSUNNY   95  41  15 N13G21    29.97F
$$

NMZ009-TXZ055-202300-
NEW MEXICO-WEST TEXAS

CITY           SKY/WX    TMP DP  RH WIND       PRES   REMARKS
ALBUQUERQUE    CLOUDY    72  54  53 S16       30.17F
EL PASO        PTSUNNY   79  67  66 VRB3      30.05F
$$


........................KEY........................
SKY/WX - SKY CONDITION/WEATHER
TMP    - TEMPERATURE IN FAHRENHEIT
DP     - DEW POINT IN FAHRENHEIT
RH     - RELATIVE HUMIDITY IN PERCENT
WIND   - DIRECTION AND SPEED IN MILES PER HOUR (MPH)
VRB    - VARIABLE WIND DIRECTION
PRES   - MEAN SEA LEVEL PRESSURE IN INCHES OF MERCURY
         F - FALLING PRESSURE   R - RISING PRESSURE
         S - STEADY PRESSURE
VSB    - VISIBILITY IN MILES
HX     - HEAT INDEX IN FAHRENHEIT
WCI    - WIND CHILL INDEX IN FAHRENHEIT
TC     - TEMPERATURE IN CELSIUS WHICH IS ALSO KNOWN AS
         TEMPERATURE IN CENTIGRADE
AFB    - AIR FORCE BASE
         LUKE AFB IS LUKE AIR FORCE BASE
         DAVIS-MONTHAN IS DAVIS-MONTHAN AIR FORCE BASE
NAS    - NAVAL AIR STATION
         EL CENTRO NAS IS EL CENTRO NAVAL AIR STATION
N/A    - NOT AVAILABLE




USA.gov is the U.S. government's official web portal to all federal, state and local government web resources and services.